Regional Weather Roundup
Issued by NWS

Home | Current Version | Previous Version | Text Only | Print | Product List | Glossary Off
Versions: 1 2 3 4 5 6 7 8 9 10 11 12 13 14 15 16 17 18 19 20 21 22 23 24 25 26 27 28 29 30 31 32 33 34 35 36 37 38 39 40 41 42 43 44 45 46 47 48 49 50

000
ASUS43 KIND 011559
RWRIN

WEATHER ROUNDUP FOR INDIANA
NATIONAL WEATHER SERVICE INDIANAPOLIS IN
1200 PM EDT MON JUN 01 2015

NOTE: "FAIR" INDICATES FEW OR NO CLOUDS BELOW 12,000 FEET WITH NO
SIGNIFICANT WEATHER AND/OR OBSTRUCTIONS TO VISIBILITY.

* - STATION DOES NOT REPORT WEATHER SUCH AS PRECIPITATION OR FOG.

+ - STATION NOT QUALITY CONTROLLED BY THE NATIONAL WEATHER SERVICE.
    USE DATA WITH CAUTION...ESPECIALLY DEWPOINT AND RELATIVE
    HUMIDITY OBSERVATIONS.

INZ001>003-010>013-019-020-011700-
NORTHWEST INDIANA

CITY           SKY/WX    TMP DP  RH WIND       PRES   REMARKS
GARY /AIRPORT/ CLOUDY    55  46  71 NE9       30.25S
RENSSELAER +   PTSUNNY   55  52  88 NE6       30.21F

$$

LMZ046-743>745-011700-
SOUTHERN LAKE MICHIGAN

STATION/POSITION TIME  TEMP    WIND        PRES    WAVE
                       AIR SEA DIR/SP/G            HT
                 (UTC) (F)     (DEG/KT/KT) (MB)    (FT)
BURNS HARBOR     1500   51      40/ 11/ 13 1024.4S
MICHIGAN CITY    1500   51      20/  9/ 11   N/A
5NW MICH CITY    1500   50 53   40/ 10/ 14   N/A     2

$$

INZ004-005-014>016-021>024-011700-
NORTH CENTRAL INDIANA

CITY           SKY/WX    TMP DP  RH WIND       PRES   REMARKS
ELKHART        SUNNY     57  45  62 NE7       30.23F
GOSHEN         CLOUDY    56  47  71 NE9       30.23S
SOUTH BEND     PTSUNNY   60  47  61 VRB7      30.24S

$$

INZ006>009-017-018-025>027-011700-
NORTHEAST INDIANA

CITY           SKY/WX    TMP DP  RH WIND       PRES   REMARKS
ANGOLA *+      SUNNY     54  39  58 NE8       30.22S
FORT WAYNE     CLOUDY    55  48  77 NE7       30.22R

$$

INZ028-029-035-036-043>045-051>053-011700-
WEST CENTRAL INDIANA

CITY           SKY/WX    TMP DP  RH WIND       PRES   REMARKS
CRAWFORDSVL +  CLOUDY    54  46  76 NE10      30.18S
GREENCASTLE +  CLOUDY    54  46  76 NE8       30.17F
LAFAYETTE      CLOUDY    54  48  80 NE8       30.20S
TERRE HAUTE    CLOUDY    57  51  80 E12       30.16F

$$

INZ030>032-037>040-046>048-054>057-064-065-011700-
CENTRAL INDIANA

CITY           SKY/WX    TMP DP  RH WIND       PRES   REMARKS
ANDERSON       CLOUDY    54  46  76 N8        30.20S
INDIANAPOLIS   LGT RAIN  55  49  80 N9        30.16S
-EAGLE CREEK   LGT RAIN  54  49  83 NE6       30.17F
KOKOMO *+      CLOUDY    55  46  71 NE9       30.20S
MT COMFORT *+  CLOUDY    54  50  87 NE9       30.19S
SHELBYVILLE    LGT RAIN  56  51  84 NE9       30.17R

$$

INZ033-034-041-042-049-050-058-059-011700-
EAST CENTRAL INDIANA

CITY           SKY/WX    TMP DP  RH WIND       PRES   REMARKS
MUNCIE         CLOUDY    53  49  86 NE8       30.19R

$$

INZ060-061-067>069-081>083-085>088-011700-
SOUTHWEST INDIANA

CITY           SKY/WX    TMP DP  RH WIND       PRES   REMARKS
EVANSVILLE     CLOUDY    60  54  80 NE7       30.13S
HUNTINGBURG *+ CLOUDY    55  54  94 NE10      30.14R

$$

INZ062-063-066-070>080-084-089>092-011700-
SOUTH CENTRAL AND SOUTHEAST INDIANA

CITY           SKY/WX    TMP DP  RH WIND       PRES   REMARKS
BLOOMINGTON    LGT RAIN  55  50  83 NE10      30.15F
MADISON *+     CLOUDY    54  50  87 N7        30.16R

$$




USA.gov is the U.S. government's official web portal to all federal, state and local government web resources and services.